Weather History for Andrews, NC

Change the Weather History Date:

Tuesday, February 18, 2014

  Actual Average (KTYS) Record (KTYS)
Temperature  
Mean Temperature 48 °F 43 °F  
Max Temperature 63 °F 53 °F 73 °F (1948)
Min Temperature 34 °F 33 °F 0 °F (1958)
Degree Days  
Heating Degree Days 16 22  
Month to date heating degree days 430  
Since 1 July heating degree days 2692  
Cooling Degree Days 0 0  
Month to date cooling degree days 0  
Year to date cooling degree days 0  
Moisture  
Dew Point 37 °F    
Average Humidity 74    
Maximum Humidity 100    
Minimum Humidity 23    
Precipitation  
Precipitation 0.10 in 0.16 in 2.36 in (1889)
Month to date precipitation 2.74  
Year to date precipitation 7.06  
Snow  
Snow 0.00 in 0.10 in - ()
Month to date snowfall 1.2  
Since 1 July snowfall 4.7  
Snow Depth -    
Sea Level Pressure  
Sea Level Pressure 30.14 in    
Wind  
Wind Speed 2 mph (WNW)    
Max Wind Speed 10 mph    
Max Gust Speed -    
Visibility 7 miles    
Events Fog , Rain    
T = Trace of Precipitation, MM = Missing Value Source: NWS Daily Summary

Daily Weather History Graph

Daily Weather History Graph

Search for Another Location

Airport:

Trip Planner

Search our weather history database for the weather conditions in past years. The results will help you decide how hot, cold, wet, or windy it might be!

Date:

Astronomy

Feb. 18, 2014 Rise Set
Actual Time 7:18 AM EST 6:20 PM EST
Civil Twilight 6:52 AM EST 6:46 PM EST
Nautical Twilight 6:22 AM EST 7:16 PM EST
Astronomical Twilight 5:53 AM EST 7:45 PM EST
Moon 10:02 PM EST (2/18) 8:59 AM EST (2/18)
Length of Visible Light 11h 54m
Length of Day
11h 02m
Waning Gibbous, 87% of the Moon is Illuminated
Feb 18
Waning Gibbous
Feb 22
Last Quarter
Mar 1
New
Mar 8
First Quarter
Mar 16
Full

Hourly Weather History & Observations

Time (EST) Temp. Windchill Dew Point Humidity Pressure Visibility Wind Dir Wind Speed Gust Speed Precip Events Conditions
12:15 AM 43.2 °F - 42.8 °F 99% 30.16 in 5.0 mi Calm Calm - N/A   Overcast
12:35 AM 42.8 °F - 42.4 °F 99% 30.15 in 4.0 mi Calm Calm - N/A   Overcast
12:55 AM 41.7 °F - 41.2 °F 98% 30.14 in 3.0 mi Calm Calm - N/A   Overcast
1:15 AM 41.4 °F - 41.2 °F 99% 30.13 in 1.0 mi Calm Calm - N/A   Overcast
1:35 AM 40.6 °F - 40.5 °F 99% 30.13 in 2.0 mi Calm Calm - N/A   Overcast
1:55 AM 40.5 °F - 40.5 °F 100% 30.14 in 0.5 mi Calm Calm - N/A Fog Fog
2:15 AM 40.5 °F - 40.5 °F 100% 30.14 in 0.2 mi Calm Calm - N/A Fog Fog
2:35 AM 41.0 °F 39.0 °F 41.0 °F 100% 30.14 in 1.5 mi East 3.5 mph - N/A   Overcast
2:55 AM 40.8 °F - 40.8 °F 100% 30.15 in 5.0 mi Calm Calm - N/A   Overcast
3:15 AM 41.0 °F - 41.0 °F 100% 30.15 in 2.5 mi Calm Calm - N/A   Overcast
3:35 AM 41.2 °F - 41.0 °F 99% 30.15 in 4.0 mi Calm Calm - N/A   Overcast
3:55 AM 41.0 °F - 40.6 °F 99% 30.15 in 5.0 mi Calm Calm - N/A   Overcast
4:15 AM 40.5 °F 38.4 °F 40.3 °F 99% 30.16 in 2.5 mi East 3.5 mph - N/A   Overcast
4:35 AM 40.3 °F 37.1 °F 40.3 °F 100% 30.16 in 0.2 mi ENE 4.6 mph - N/A Fog Fog
4:55 AM 39.7 °F 36.5 °F 39.7 °F 100% 30.16 in 0.2 mi ENE 4.6 mph - N/A Fog Fog
5:15 AM 39.2 °F 35.0 °F 39.2 °F 100% 30.17 in 0.5 mi East 5.8 mph - N/A Fog Fog
5:35 AM 38.3 °F - 38.3 °F 100% 30.18 in 0.8 mi Calm Calm - N/A   Overcast
5:55 AM 37.6 °F - 37.6 °F 100% 30.19 in 1.0 mi Calm Calm - N/A   Overcast
6:15 AM 36.5 °F 33.9 °F 36.5 °F 100% 30.20 in 3.0 mi North 3.5 mph - N/A   Overcast
6:35 AM 36.0 °F - 36.0 °F 100% 30.20 in 2.0 mi Calm Calm - N/A   Overcast
6:55 AM 36.5 °F 32.7 °F 36.5 °F 100% 30.20 in 2.0 mi NNE 4.6 mph - N/A   Overcast
7:15 AM 36.1 °F - 36.1 °F 100% 30.21 in 0.5 mi Calm Calm - N/A Fog Fog
7:35 AM 35.6 °F 32.8 °F 35.6 °F 100% 30.22 in 0.2 mi NE 3.5 mph - N/A Fog Fog
7:55 AM 34.9 °F 32.0 °F 34.9 °F 100% 30.22 in 0.2 mi NE 3.5 mph - N/A Fog Fog
8:15 AM 34.3 °F 31.4 °F 34.3 °F 100% 30.23 in 0.2 mi ENE 3.5 mph - N/A Fog Fog
8:35 AM 34.0 °F - 34.0 °F 100% 30.23 in 0.5 mi Calm Calm - N/A Fog Fog
8:55 AM 34.0 °F - 34.0 °F 100% 30.23 in 0.5 mi Calm Calm - N/A Fog Fog
9:15 AM 35.8 °F - 35.8 °F 100% 30.22 in 0.8 mi Calm Calm - N/A   Overcast
9:35 AM 36.3 °F - 35.8 °F 98% 30.22 in 7.0 mi Calm Calm - N/A   Mostly Cloudy
9:55 AM 38.8 °F 36.5 °F 36.9 °F 93% 30.22 in 10.0 mi West 3.5 mph - N/A   Scattered Clouds
10:15 AM 40.8 °F 37.8 °F 36.5 °F 85% 30.23 in 10.0 mi West 4.6 mph - N/A   Scattered Clouds
10:35 AM 43.5 °F 41.9 °F 37.9 °F 81% 30.22 in 10.0 mi WSW 3.5 mph - N/A   Clear
10:55 AM 46.0 °F - 37.8 °F 73% 30.22 in 10.0 mi Calm Calm - N/A   Clear
11:15 AM 48.2 °F - 34.5 °F 59% 30.22 in 10.0 mi Calm Calm - N/A   Clear
11:35 AM 51.1 °F - 33.6 °F 51% 30.21 in 10.0 mi West 3.5 mph - N/A   Clear
11:55 AM 52.9 °F - 33.6 °F 48% 30.20 in 10.0 mi West 4.6 mph - N/A   Clear
12:15 PM 54.7 °F - 34.3 °F 46% 30.20 in 10.0 mi West 4.6 mph - N/A   Clear
12:35 PM 55.6 °F - 37.4 °F 50% 30.18 in 10.0 mi West 6.9 mph - N/A   Clear
12:55 PM 56.7 °F - 37.0 °F 48% 30.18 in 10.0 mi West 8.1 mph - N/A   Clear
1:15 PM 57.9 °F - 38.5 °F 48% 30.17 in 10.0 mi West 8.1 mph - N/A   Clear
1:35 PM 58.8 °F - 38.7 °F 47% 30.15 in 10.0 mi West 6.9 mph - N/A   Clear
1:55 PM 60.8 °F - 35.1 °F 38% 30.15 in 10.0 mi West 8.1 mph - N/A   Clear
2:15 PM 61.0 °F - 29.7 °F 31% 30.15 in 10.0 mi WSW 8.1 mph - N/A   Clear
2:35 PM 61.2 °F - 27.3 °F 28% 30.13 in 10.0 mi West 8.1 mph - N/A   Clear
2:55 PM 61.9 °F - 26.1 °F 26% 30.13 in 10.0 mi West 9.2 mph - N/A   Clear
3:15 PM 61.9 °F - 26.4 °F 26% 30.12 in 10.0 mi West 10.4 mph - N/A   Clear
3:35 PM 61.7 °F - 28.8 °F 29% 30.12 in 10.0 mi West 6.9 mph - N/A   Clear
3:55 PM 62.4 °F - 28.8 °F 28% 30.11 in 10.0 mi West 4.6 mph - N/A   Clear
4:15 PM 63.1 °F - 26.4 °F 25% 30.11 in 10.0 mi West 8.1 mph - N/A   Clear
4:35 PM 63.0 °F - 24.3 °F 23% 30.10 in 10.0 mi West 3.5 mph - N/A   Clear
4:55 PM 63.0 °F - 30.7 °F 30% 30.09 in 10.0 mi West 5.8 mph - N/A   Clear
5:15 PM 61.7 °F - 32.9 °F 34% 30.09 in 10.0 mi West 4.6 mph - N/A   Clear
5:35 PM 59.0 °F - 33.3 °F 38% 30.09 in 10.0 mi Calm Calm - N/A   Clear
5:55 PM 53.2 °F - 35.6 °F 51% 30.09 in 10.0 mi Calm Calm - N/A   Clear
6:15 PM 51.3 °F - 36.3 °F 57% 30.09 in 10.0 mi Calm Calm - N/A   Clear
6:35 PM 50.5 °F - 34.7 °F 55% 30.09 in 10.0 mi Calm Calm - N/A   Scattered Clouds
6:55 PM 47.3 °F - 35.8 °F 64% 30.09 in 10.0 mi Calm Calm - N/A   Scattered Clouds
7:15 PM 49.8 °F - 33.3 °F 53% 30.09 in 10.0 mi Calm Calm - N/A   Mostly Cloudy
7:35 PM 46.6 °F - 36.1 °F 67% 30.09 in 10.0 mi Calm Calm - N/A   Mostly Cloudy
7:55 PM 46.6 °F - 36.3 °F 67% 30.08 in 10.0 mi Calm Calm - N/A   Scattered Clouds
8:15 PM 45.3 °F - 37.6 °F 74% 30.08 in 10.0 mi Calm Calm - N/A   Mostly Cloudy
8:35 PM 47.3 °F - 36.1 °F 65% 30.07 in 10.0 mi Calm Calm - N/A   Overcast
8:55 PM 46.8 °F - 37.0 °F 69% 30.07 in 10.0 mi Calm Calm - N/A   Overcast
9:15 PM 46.2 °F - 39.6 °F 78% 30.06 in 10.0 mi Calm Calm - N/A   Overcast
9:35 PM 46.6 °F - 39.9 °F 78% 30.06 in 10.0 mi Calm Calm - N/A   Overcast
9:55 PM 48.0 °F - 36.9 °F 65% 30.06 in 10.0 mi Calm Calm - N/A   Overcast
10:15 PM 47.7 °F - 38.8 °F 71% 30.06 in 10.0 mi Calm Calm - N/A   Overcast
10:35 PM 47.7 °F - 40.1 °F 75% 30.04 in 10.0 mi East 3.5 mph - N/A   Overcast
10:55 PM 48.6 °F - 39.0 °F 70% 30.05 in 10.0 mi Calm Calm - 0.01 in Rain Heavy Rain
11:15 PM 46.4 °F - 43.7 °F 90% 30.06 in 7.0 mi Calm Calm - 0.08 in Rain Light Rain
11:35 PM 46.4 °F 45.2 °F 44.6 °F 93% 30.06 in 10.0 mi NE 3.5 mph - 0.09 in   Overcast
11:55 PM 46.8 °F - 45.1 °F 94% 30.04 in 10.0 mi Calm Calm - 0.09 in   Overcast